User: anonymous   Login
Location: Cañada de la Miga
(34.7595°N, 106.2317°W)
Time: 00:56:27
(UTC+00:00)
Language:

SR - Orbit

View from above orbital plane
View from above orbital plane
View from above satellite
View from above satellite

Ground track
Ground track

The orbit data is extracted from the following two-line orbital elements,

1 00046U 60007B   21340.59991616  .00000064  00000-0  35943-4 0  9997
2 00046  66.6918  34.9526 0202379  90.7709 271.6592 14.49478519216959
Epoch (UTC): 06 December 2021 14:23:52
Eccentricity: 0.0202379
inclination: 66.6918°
perigee height: 583 km
apogee height: 871 km
right ascension of ascending node: 34.9526°
argument of perigee: 90.7709°
revolutions per day: 14.49478519
mean anomaly at epoch: 271.6592°
orbit number at epoch: 21695

The dashed part of the orbit path shows where the satellite is in the earth's shadow,  

DLR